FW5669 Weather Reports


Display with metric or nautical units.
time (UTC)temp
F
wind
direction
speed
MPH
gust
MPH
rain 1hr
in
rain 24hr
in
rain mn
in
humidity
%
barometer
mb
20260509061501 59 355 0.0 0.0 0.00 0.00 0.00 88 1016.3
20260509060002 59 355 0.0 0.0 0.00 0.00 0.00 87 1016.3
20260509054600 60 172 0.0 0.0 0.00 0.00 0.00 87 1016.5
20260509054501 60 172 0.0 0.0 0.00 0.00 0.00 86 1016.5
20260509053103 60 346 0.0 0.0 0.00 0.00 0.00 86 1016.4
20260509051602 60 346 0.0 0.0 0.00 0.00 0.00 86 1016.3
20260509050101 61 346 0.0 0.0 0.00 0.00 0.00 86 1016.4
20260509050001 61 346 0.0 0.0 0.00 0.00 0.00 86 1016.4
20260509044600 61 346 0.0 0.0 0.00 0.00 0.00 85 1016.4
20260509043100 62 346 0.0 0.0 0.00 0.00 0.00 84 1016.0
20260509043001 62 346 0.0 0.0 0.00 0.00 0.00 84 1016.0
20260509041600 63 346 0.0 0.0 0.00 0.00 0.00 83 1015.9
20260509041501 63 324 0.0 0.0 0.00 0.00 0.00 83 1015.9
20260509040001 64 260 0.0 0.0 0.00 0.00 0.00 81 1015.9
20260509034601 65 260 0.0 0.0 0.00 0.00 0.00 79 1015.8
20260509033102 67 260 0.0 0.0 0.00 0.00 0.00 75 1015.8
20260509031600 69 260 0.0 0.0 0.00 0.00 0.00 71 1015.8
20260509030101 70 260 0.0 0.0 0.00 0.00 0.00 67 1015.6
20260509030002 71 260 0.0 0.0 0.00 0.00 0.00 67 1015.6
20260509024603 72 260 0.0 0.0 0.00 0.00 0.00 64 1015.6
20260509023107 74 260 0.0 0.0 0.00 0.00 0.00 61 1015.6
20260509023000 74 260 0.0 0.0 0.00 0.00 0.00 61 1015.6
20260509021601 75 260 0.0 0.0 0.00 0.00 0.00 57 1015.5
20260509020002 76 260 0.0 1.0 0.00 0.00 0.00 53 1015.6
20260509014505 76 260 0.0 1.0 0.00 0.00 0.00 52 1015.6
20260509013002 77 232 0.0 2.0 0.00 0.00 0.00 49 1015.6
20260509011502 77 200 0.0 2.0 0.00 0.00 0.00 51 1015.7
20260509010003 77 243 0.0 3.0 0.00 0.00 0.00 52 1015.8
20260509004608 78 195 1.0 3.0 0.00 0.00 0.00 53 1015.8
20260509003003 78 200 1.0 3.0 0.00 0.00 0.00 55 1016.1
20260509001601 78 208 1.0 3.0 0.00 0.00 0.00 54 1016.2
20260509000100 78 229 1.0 3.0 0.00 0.00 0.00 53 1016.1
20260509000004 78 244 1.0 3.0 0.00 0.00 0.00 53 1016.1
20260508234501 79 168 2.0 4.0 0.00 0.00 0.00 54 1016.2
20260508233004 79 254 2.0 4.0 0.00 0.00 0.00 55 1016.3
20260508231503 79 202 1.0 3.0 0.00 0.00 0.00 52 1016.4
20260508230002 79 278 2.0 4.0 0.00 0.00 0.00 55 1016.5
20260508224603 80 191 1.0 4.0 0.00 0.00 0.00 55 1016.8
20260508223100 79 283 1.0 4.0 0.00 0.00 0.00 55 1017.1
20260508223002 79 199 1.0 3.0 0.00 0.00 0.00 58 1017.2
20260508221601 79 184 1.0 3.0 0.00 0.00 0.00 57 1017.2
20260508220100 78 247 1.0 3.0 0.00 0.00 0.00 58 1017.6
20260508220002 78 179 2.0 3.0 0.00 0.00 0.00 57 1017.5
20260508214600 78 166 0.0 4.0 0.00 0.00 0.00 60 1017.8
20260508213100 78 190 1.0 4.0 0.00 0.00 0.00 59 1018.0
20260508211600 77 206 2.0 4.0 0.00 0.00 0.00 60 1018.0
20260508204601 76 249 2.0 8.0 0.00 0.00 0.00 63 1018.2
20260508203107 75 195 0.0 5.0 0.00 0.00 0.00 62 1018.3
20260508201606 75 185 2.0 6.0 0.00 0.00 0.00 60 1018.5
20260508200004 74 273 1.0 5.0 0.00 0.00 0.00 62 1018.5
20260508194601 74 217 1.0 4.0 0.00 0.00 0.00 63 1018.7
20260508194501 74 179 1.0 4.0 0.00 0.00 0.00 62 1018.7
20260508193105 74 212 2.0 5.0 0.00 0.00 0.00 64 1018.7
20260508191501 72 183 3.0 8.0 0.00 0.00 0.00 65 1018.8
20260508190007 73 242 1.0 4.0 0.00 0.00 0.00 66 1018.9
20260508184600 73 213 1.0 4.0 0.00 0.00 0.00 67 1018.9
20260508183101 73 239 1.0 3.0 0.00 0.00 0.00 63 1018.8
20260508181609 73 291 1.0 3.0 0.00 0.00 0.00 65 1018.8
20260508181500 73 203 1.0 3.0 0.00 0.00 0.00 65 1018.8
20260508180002 72 229 1.0 3.0 0.00 0.00 0.00 64 1018.7
20260508174609 71 206 1.0 4.0 0.00 0.00 0.00 66 1018.7
20260508173101 70 233 1.0 3.0 0.00 0.00 0.00 68 1018.9
20260508171500 71 229 1.0 3.0 0.00 0.00 0.00 64 1018.8
20260508170004 72 238 1.0 3.0 0.00 0.00 0.00 60 1018.7
20260508164601 71 119 0.0 3.0 0.00 0.00 0.00 54 1018.4
20260508164501 71 119 1.0 3.0 0.00 0.00 0.00 54 1018.4
20260508163101 70 188 0.0 2.0 0.00 0.00 0.00 56 1018.5
20260508161600 69 283 0.0 2.0 0.00 0.00 0.00 56 1018.6
20260508160002 68 256 0.0 2.0 0.00 0.00 0.00 61 1018.6
20260508154606 66 294 0.0 1.0 0.00 0.00 0.00 64 1018.7
20260508153101 66 287 0.0 2.0 0.00 0.00 0.00 65 1018.6
20260508151601 66 60 0.0 1.0 0.00 0.00 0.00 66 1018.4
20260508150100 63 27 0.0 3.0 0.00 0.00 0.00 66 1018.3
20260508144600 61 48 0.0 2.0 0.00 0.00 0.00 71 1018.3
20260508143103 57 59 0.0 2.0 0.00 0.00 0.00 79 1018.3
20260508143001 57 352 0.0 2.0 0.00 0.00 0.00 79 1018.2
20260508141621 54 18 0.0 1.0 0.00 0.00 0.00 89 1018.2
20260508134619 51 10 0.0 0.0 0.00 0.00 0.00 93 1018.0
20260508133102 51 354 0.0 0.0 0.00 0.00 0.00 92 1018.1
20260508131559 52 354 0.0 0.0 0.00 0.00 0.00 92 1017.8
20260508130100 52 354 0.0 0.0 0.00 0.00 0.00 93 1017.6
20260508130000 52 354 0.0 0.0 0.00 0.00 0.00 93 1017.6
20260508124603 52 354 0.0 0.0 0.00 0.00 0.00 93 1017.6
20260508123100 52 354 0.0 0.0 0.00 0.00 0.00 93 1017.7
20260508121603 53 354 0.0 0.0 0.00 0.00 0.00 93 1017.7
20260508120100 53 354 0.0 0.0 0.00 0.00 0.00 93 1017.5
20260508120004 53 354 0.0 0.0 0.00 0.00 0.00 93 1017.5
20260508114600 53 354 0.0 0.0 0.00 0.00 0.00 93 1017.5
20260508113115 54 349 0.0 0.0 0.00 0.00 0.00 92 1017.5
20260508111604 54 349 0.0 0.0 0.00 0.00 0.00 92 1017.5
20260508110002 55 349 0.0 0.0 0.00 0.00 0.00 92 1017.3
20260508104601 55 349 0.0 0.0 0.00 0.00 0.00 92 1017.4
20260508103105 56 349 0.0 2.0 0.00 0.00 0.00 92 1017.4
20260508101600 56 39 1.0 5.0 0.00 0.00 0.00 93 1017.4
20260508100100 56 26 0.0 0.0 0.00 0.00 0.00 92 1017.4
20260508100003 56 26 0.0 0.0 0.00 0.00 0.00 92 1017.5
20260508094603 56 34 0.0 0.0 0.00 0.00 0.00 93 1017.6
20260508093059 56 35 0.0 1.0 0.00 0.00 0.00 92 1017.7
20260508091559 57 16 0.0 1.0 0.00 0.00 0.00 92 1017.8
20260508090106 57 16 0.0 1.0 0.00 0.00 0.00 92 1017.7
20260508090003 57 16 0.0 1.0 0.00 0.00 0.00 92 1017.7
20260508084600 58 16 0.0 1.0 0.00 0.00 0.00 92 1017.8
20260508083117 58 39 0.0 1.0 0.00 0.00 0.00 92 1017.6
20260508081605 58 39 0.0 2.0 0.00 0.00 0.00 92 1017.6
20260508080001 58 39 0.0 1.0 0.00 0.00 0.00 92 1017.7
20260508074603 58 39 0.0 2.0 0.00 0.00 0.00 91 1017.7
20260508073100 59 39 0.0 1.0 0.00 0.00 0.00 90 1017.7
20260508071601 60 39 0.0 0.0 0.00 0.00 0.00 91 1017.7
20260508070100 61 39 0.0 0.0 0.00 0.00 0.00 90 1017.5
20260508070005 61 39 0.0 0.0 0.00 0.00 0.00 90 1017.5
20260508064502 60 55 0.0 1.0 0.00 0.00 0.00 92 1017.4
20260508063002 60 187 0.0 0.0 0.00 0.00 0.00 91 1017.5